Theta_e
302 303 303 302 302 302 302 301 302 303 303 304 305 305 306 309 308 311 320 319 320 326 324 321 321 325 325 322 325 329 328 325 325 326 326 327 327 327 328 328 329 329 330 330 331 331 330 333 334 338 336 333 331 332
303 303 302 302 302 302 302 301 302 303 303 304 305 305 306 308 309 309 319 318 319 322 326 321 319 320 322 323 326 324 326 332 330 332 330 330 330 329 329 330 327 329 329 329 331 333 332 330 333 331 330 330 329 329
303 302 301 301 301 301 301 302 302 303 303 304 305 305 306 307 308 308 315 319 319 322 323 320 321 319 319 319 320 327 325 326 327 327 328 326 327 327 328 326 326 326 328 329 330 329 328 328 326 326 326 326 326 326
301 301 301 301 301 301 301 302 303 303 303 304 305 305 306 307 308 308 316 319 319 321 325 325 320 319 320 319 320 321 323 323 322 323 324 325 325 325 326 325 325 325 326 325 326 326 327 325 327 325 325 324 324 324
301 301 301 301 301 301 302 302 303 303 304 304 305 305 306 307 308 309 316 319 318 321 327 325 320 319 319 319 320 320 321 323 324 325 325 326 324 325 325 324 323 323 324 325 326 326 326 326 324 323 323 323 322 322
301 301 301 301 302 302 301 301 302 303 304 304 305 306 306 307 308 313 320 320 318 318 323 323 323 322 320 321 321 322 322 323 323 324 324 323 323 323 324 324 323 322 322 322 324 324 324 323 322 321 322 322 322 322
301 300 301 301 301 302 302 302 302 303 304 304 305 306 308 308 308 315 318 316 313 318 322 324 321 321 320 321 322 322 322 323 322 322 322 322 322 322 323 324 322 322 323 324 323 322 323 321 322 321 321 321 320 321
301 301 301 301 303 302 302 302 303 303 303 305 306 308 310 309 311 316 315 312 313 318 320 326 323 322 320 322 323 322 321 322 323 322 322 322 322 322 323 322 322 323 323 323 323 321 320 319 320 320 320 321 322 322
300 301 300 302 302 302 302 303 303 304 305 307 309 310 312 314 319 317 314 313 315 318 323 324 326 326 320 324 323 323 321 321 323 324 323 322 321 321 322 323 325 324 325 322 320 320 319 320 322 320 320 319 321 323
301 300 302 302 302 302 303 304 305 306 308 310 312 317 320 318 315 315 317 318 319 319 320 323 325 323 319 322 322 323 322 321 323 322 323 322 321 323 322 321 320 319 319 319 320 320 320 319 319 319 319 320 321 321
301 301 301 302 302 303 304 307 307 307 313 315 317 319 317 314 317 319 321 322 320 322 320 322 322 323 320 321 323 322 323 322 322 321 321 321 321 323 320 319 318 317 318 318 317 318 319 320 320 320 319 318 319 320
301 301 301 302 302 304 307 309 308 309 313 310 311 313 316 317 319 320 322 321 321 324 322 322 321 321 324 321 321 322 324 322 323 321 321 321 321 323 320 318 317 319 318 317 315 317 319 319 318 318 317 317 318 319
301 301 301 302 304 306 309 309 308 308 309 313 315 317 318 318 319 318 321 324 324 322 322 323 325 321 323 322 322 325 324 323 321 321 321 320 326 324 323 321 320 319 319 316 316 318 318 316 316 315 316 317 318 319
301 301 301 303 306 308 309 309 309 310 310 316 317 319 319 318 319 319 322 323 325 322 323 323 326 324 324 325 322 325 322 322 323 323 323 322 326 324 323 322 321 319 317 317 319 319 318 317 316 316 317 317 318 321
301 301 302 306 307 307 308 309 308 309 313 317 317 321 318 317 319 320 321 322 322 323 322 326 325 327 327 326 323 322 323 323 322 327 320 323 325 325 324 322 320 318 318 319 318 319 318 317 316 316 317 318 319 320
301 303 307 306 306 305 307 308 309 310 314 316 317 318 318 319 321 321 322 321 321 320 321 324 325 326 326 326 324 324 322 323 323 322 319 325 326 324 323 321 319 317 319 319 319 319 319 318 318 317 318 319 319 318
302 307 307 306 305 305 308 309 313 315 316 317 319 317 318 319 321 322 322 322 320 322 324 325 324 322 323 326 324 322 325 326 322 318 316 324 324 322 320 319 318 319 319 318 319 319 319 318 317 318 319 319 318 317
305 307 306 306 305 307 311 311 314 315 316 317 318 317 317 318 318 319 320 320 323 323 326 324 324 324 324 322 325 326 326 326 323 323 322 322 324 321 320 321 320 319 319 319 318 319 318 318 319 319 319 319 317 317
305 304 304 304 304 306 311 313 314 317 317 318 318 318 318 318 318 319 320 322 321 324 325 324 324 326 326 326 326 326 326 324 320 320 322 321 320 320 319 319 319 319 319 318 319 316 315 316 318 318 319 317 317 317
304 305 306 306 304 308 313 315 314 318 319 320 319 319 319 320 321 322 321 322 327 329 325 325 324 327 328 327 324 322 319 319 319 318 318 318 318 317 318 318 318 315 315 315 314 314 315 315 316 318 319 318 316 317
307 307 307 307 307 309 311 314 316 317 317 319 319 321 322 321 323 324 326 324 329 323 325 324 324 326 322 320 319 318 319 319 319 319 318 318 316 316 317 316 316 316 315 315 314 315 315 315 315 316 319 319 316 316
308 307 308 308 310 310 312 313 316 317 317 319 320 322 322 325 327 326 324 325 325 322 325 322 323 323 323 319 319 318 318 318 318 316 313 316 321 318 315 316 316 315 315 315 314 315 315 314 314 315 316 318 317 316
306 307 309 309 311 311 314 314 318 318 321 323 326 326 327 327 329 324 326 324 322 322 320 321 319 317 317 317 317 316 317 315 316 316 317 316 316 316 315 314 315 315 315 313 314 315 315 313 314 314 314 315 318 318
306 309 311 311 312 315 316 320 319 321 321 322 324 325 326 326 327 325 324 323 322 321 321 320 317 317 317 317 317 316 317 316 316 314 316 316 316 316 315 315 314 314 315 315 315 314 314 313 313 314 313 312 314 314
309 312 311 313 317 319 319 320 320 321 323 325 327 326 325 323 324 324 322 321 321 320 320 316 317 316 317 317 316 316 317 315 315 314 314 315 314 314 314 315 314 314 314 313 313 313 314 314 313 313 312 312 310 311
310 314 313 317 316 318 319 320 322 324 325 325 326 328 327 324 324 323 322 319 319 319 318 316 316 316 317 316 317 317 316 314 315 316 314 314 313 314 315 315 313 313 312 312 311 311 313 313 313 313 312 311 310 310
315 315 316 316 317 317 319 319 320 323 324 325 325 326 327 325 324 324 322 319 318 317 316 315 315 316 315 315 314 314 314 314 314 315 315 315 314 313 314 314 313 311 311 309 311 312 312 312 311 311 310 310 310 310
315 316 318 318 318 318 319 319 320 321 323 325 325 324 326 326 326 323 321 318 317 316 315 315 315 316 315 315 315 315 315 315 314 315 316 316 316 314 314 314 310 308 308 309 309 310 310 310 310 310 310 310 310 311
316 316 316 317 318 318 319 319 320 320 323 323 326 325 326 326 322 322 321 317 316 315 315 316 315 315 315 314 314 314 314 315 316 317 317 315 315 313 313 314 312 312 312 310 309 310 310 310 310 310 311 311 310 311
317 316 317 318 319 319 319 319 319 320 322 323 323 324 324 326 318 321 321 318 317 316 316 315 316 315 316 316 316 316 316 316 316 316 316 315 315 313 313 313 312 312 312 313 312 312 310 309 310 311 311 311 311 311
316 317 318 318 318 319 319 319 319 319 318 318 318 318 319 324 322 322 322 319 317 316 316 316 316 316 316 316 316 317 317 316 317 317 315 314 315 314 313 313 312 312 312 312 312 312 312 312 313 312 312 312 312 312
317 318 318 319 319 319 318 318 318 318 318 319 319 319 319 321 326 325 322 321 319 317 317 316 317 316 315 316 316 315 314 315 315 316 316 315 315 315 315 314 313 312 312 312 312 313 312 312 312 313 312 312 313 313
319 318 318 318 319 319 319 319 320 320 320 321 321 320 319 322 324 323 322 322 320 318 317 316 315 316 316 316 316 315 315 315 314 312 312 311 311 312 312 313 314 314 313 312 312 312 312 313 313 312 313 312 312 313
Wind_Speed
14 14 14 15 16 17 19 18 19 20 20 22 24 25 22 18 19 21 10 12 11 6 7 5 6 7 4 4 7 7 5 6 5 4 5 7 6 6 4 7 7 7 8 9 9 14 13 17 10 6 6 5 7 7
13 14 15 15 16 17 18 16 18 19 19 20 22 23 20 19 15 15 10 13 11 6 6 4 5 3 4 7 6 3 5 2 6 4 4 4 6 5 6 8 5 6 8 8 6 6 2 11 10 6 9 10 12 10
13 14 14 14 15 16 17 16 18 19 19 20 20 19 19 18 12 13 10 14 14 6 7 6 7 2 1 3 5 5 2 4 2 4 5 4 3 5 6 7 11 7 13 6 10 10 13 4 8 10 13 13 15 14
13 12 13 14 15 15 15 16 17 18 19 18 19 17 17 17 11 12 10 11 12 7 5 8 4 3 1 2 3 5 4 2 3 4 4 5 6 4 5 7 8 9 13 9 12 11 15 11 13 12 12 14 16 18
11 12 14 15 14 15 15 15 16 17 18 18 18 17 16 17 12 12 10 4 7 7 5 4 7 1 3 4 4 3 3 3 4 4 5 6 5 5 5 7 8 9 9 7 10 8 7 9 14 17 18 16 15 19
10 12 13 13 14 16 15 15 16 16 17 18 18 16 16 16 11 9 2 5 7 9 4 3 7 4 5 4 4 3 4 3 4 4 6 5 6 5 5 6 9 13 15 14 8 12 13 14 16 16 17 18 19 18
12 10 12 14 14 14 15 17 18 17 16 17 18 17 15 12 10 5 2 3 8 8 3 4 4 6 8 6 6 6 9 4 5 4 5 8 8 4 8 10 10 13 13 14 11 13 14 15 16 15 17 22 25 28
11 12 12 12 13 15 17 18 19 18 18 18 18 19 11 8 6 3 2 4 6 6 5 4 3 5 9 6 5 3 2 5 4 3 5 7 6 6 8 3 7 9 8 9 10 12 14 14 15 12 17 19 16 16
11 12 12 12 14 16 18 19 19 18 18 17 15 5 2 2 1 1 4 3 3 4 3 4 5 3 7 7 3 6 3 3 1 5 8 3 5 6 3 5 9 13 11 7 11 15 17 18 14 17 20 21 22 20
11 11 11 12 14 16 18 19 18 18 14 10 5 4 2 2 2 3 3 2 3 3 3 4 4 3 5 5 2 1 1 2 5 5 4 5 9 3 6 3 4 4 7 10 13 12 14 17 16 14 23 18 18 21
10 10 11 13 14 16 16 16 16 16 3 3 4 2 2 1 3 3 3 4 3 4 4 4 2 1 1 3 2 2 2 2 3 4 3 3 2 5 3 3 5 9 11 11 14 14 14 12 17 19 19 21 25 27
10 10 11 13 16 16 12 14 15 8 6 7 8 7 4 4 2 4 3 3 4 3 7 7 4 3 3 1 3 1 2 2 5 1 2 4 2 6 3 4 8 10 13 14 18 12 17 20 24 20 18 21 27 30
10 11 12 14 16 10 12 14 12 10 8 6 5 4 2 2 2 4 5 4 3 4 4 4 5 3 3 3 2 2 3 5 5 3 5 7 9 5 4 4 8 10 15 15 14 16 13 17 21 20 20 29 28 28
11 12 12 14 9 7 11 11 6 3 4 4 3 3 4 5 5 5 4 2 2 2 4 3 1 2 2 2 2 3 3 1 4 5 7 1 6 3 2 5 7 10 12 11 11 14 13 16 18 25 26 28 27 23
12 12 13 8 8 9 10 10 4 4 4 3 3 3 7 9 6 6 3 5 6 7 5 3 3 3 3 3 3 3 3 4 4 6 7 3 4 4 4 7 9 10 9 9 13 13 12 16 17 20 26 28 25 26
13 11 4 5 10 12 10 8 5 3 4 3 5 7 8 8 6 6 9 6 5 2 1 1 3 3 5 3 5 6 3 6 2 4 8 5 4 2 3 8 7 9 9 11 13 15 14 16 19 23 27 23 22 24
9 3 3 9 16 10 6 3 4 5 4 4 6 8 10 6 9 8 6 3 6 8 3 1 4 4 2 3 4 6 4 6 1 2 2 14 3 5 6 8 9 8 11 11 13 16 18 20 20 15 11 20 23 24
4 3 6 11 16 8 4 5 4 4 6 7 8 8 8 6 6 6 5 2 2 1 0 3 4 3 4 9 6 2 3 5 5 4 8 5 7 9 9 7 8 9 10 11 13 16 14 12 11 9 14 18 19 23
10 12 14 13 7 4 3 4 5 4 6 9 8 7 6 6 7 8 7 6 4 2 2 2 5 4 5 3 4 5 5 4 6 7 4 9 7 6 8 6 7 7 10 11 7 11 10 15 12 12 13 15 15 20
9 8 7 7 5 3 3 3 4 5 5 3 9 8 6 7 7 10 6 5 3 3 2 3 3 5 5 3 2 2 3 3 5 5 5 5 8 6 4 6 6 6 9 7 9 13 11 13 16 11 12 13 13 14
5 2 4 4 5 6 4 3 4 5 6 8 9 4 4 6 6 4 6 1 2 3 4 3 3 4 6 7 5 7 6 5 4 2 3 1 3 4 5 10 6 8 8 6 4 2 3 7 11 12 10 14 10 12
1 4 2 3 3 3 4 7 5 7 4 8 10 7 4 4 5 4 7 4 5 6 4 2 2 3 4 3 5 3 1 5 6 4 4 1 3 3 2 1 4 0 4 10 10 6 4 8 10 10 9 10 11 8
6 3 3 3 3 3 6 8 4 4 4 3 4 3 3 3 3 4 2 2 3 9 9 8 6 4 5 6 5 5 7 3 5 2 1 6 3 5 4 2 6 6 2 1 12 18 11 4 8 5 8 9 7 9
5 3 3 3 6 5 4 4 4 4 4 4 5 5 3 3 2 2 2 4 4 5 8 7 10 7 7 5 5 5 10 3 18 22 13 10 2 3 4 1 11 8 6 5 3 6 5 9 12 9 11 11 10 7
2 5 4 6 5 5 4 3 2 2 6 7 9 4 3 2 3 4 3 1 4 8 8 6 6 5 3 4 2 8 5 20 11 1 4 7 3 5 8 4 8 9 4 2 3 8 2 5 7 7 7 10 14 15
5 6 6 5 6 4 5 3 2 3 2 4 5 0 3 2 1 2 3 3 3 8 7 5 5 5 7 9 4 5 8 4 6 10 2 6 5 1 5 4 0 3 6 6 8 10 7 5 5 5 8 8 12 15
4 6 6 7 6 2 4 5 7 6 1 5 5 6 5 3 2 4 1 3 3 9 10 8 7 4 4 6 5 5 3 4 2 5 7 6 2 2 5 3 9 8 8 8 10 12 3 5 9 10 10 12 11 12
7 5 9 10 9 8 11 9 9 8 3 4 5 2 4 3 2 4 3 3 6 11 11 9 7 7 7 5 3 9 5 12 9 7 4 11 1 1 5 11 8 8 8 6 8 10 11 13 12 10 7 6 6 4
8 7 9 10 10 6 7 11 9 4 6 4 3 4 3 4 6 7 8 7 8 10 10 10 8 6 7 8 4 8 3 5 11 1 2 1 4 7 8 8 12 10 8 6 5 5 4 6 7 6 10 10 11 9
13 9 11 11 11 12 10 8 9 7 6 6 5 6 2 2 10 14 15 6 9 10 11 12 12 11 10 9 10 8 4 7 5 3 1 2 5 7 5 4 2 3 1 7 9 9 8 9 9 11 9 8 9 12
8 10 12 11 11 10 10 9 7 9 9 8 8 8 9 4 15 31 19 3 4 10 12 12 13 13 7 5 3 5 6 8 3 2 5 7 7 3 6 2 4 3 1 3 5 2 7 7 4 4 3 5 6 7
10 11 9 11 10 9 9 9 9 9 10 9 10 9 9 7 3 4 4 14 6 9 10 12 10 6 7 4 4 11 5 5 3 4 2 4 9 4 1 5 6 4 2 6 6 1 3 5 7 5 5 7 7 7
8 9 10 9 9 12 10 10 10 10 12 11 9 8 9 7 7 4 8 18 11 7 10 12 11 10 7 3 3 4 4 5 5 4 3 0 2 5 7 10 8 2 3 5 7 7 7 2 7 8 8 9 9 10
Wind_Direction
331 336 338 339 341 341 342 345 351 350 352 353 351 350 354 358 359 357 308 8 357 316 64 360 6 348 331 282 308 47 252 193 248 258 270 268 265 286 316 321 333 306 297 277 258 254 256 14 357 0 41 35 15 358
330 333 333 335 337 337 340 344 348 349 348 350 348 348 351 350 358 356 313 354 338 270 4 325 335 332 326 346 330 333 356 314 11 308 13 320 309 322 294 282 289 263 269 296 318 340 343 12 45 27 351 346 348 327
322 329 334 333 333 335 336 343 343 343 341 347 344 342 345 341 353 351 317 329 334 261 235 213 171 81 286 277 327 303 83 18 75 353 327 326 310 319 289 293 319 309 36 323 317 303 318 331 28 13 344 323 319 314
323 329 328 330 330 333 336 337 338 338 337 340 338 336 335 333 342 340 323 345 337 294 278 131 130 206 318 275 273 341 11 281 293 271 277 282 289 325 298 307 303 301 315 302 293 290 343 317 356 349 333 329 320 313
321 327 326 328 331 331 328 327 331 332 331 335 333 329 326 326 330 318 282 336 9 334 326 341 141 145 175 154 206 217 259 284 274 245 231 247 272 321 302 302 289 288 327 328 323 349 326 323 328 322 312 307 301 301
320 319 324 328 326 322 321 322 323 325 325 326 325 320 321 323 327 321 181 65 2 347 287 268 89 170 147 168 187 200 244 243 257 284 299 312 320 290 270 275 312 306 318 329 337 338 326 311 312 330 325 319 313 311
316 318 319 320 322 326 325 323 322 318 315 318 315 314 313 316 316 300 8 312 339 331 255 260 181 150 179 188 217 222 200 240 273 291 282 280 277 237 268 272 318 342 352 2 350 345 334 328 313 302 300 295 295 297
316 322 324 326 325 325 325 325 322 318 313 315 313 311 302 296 290 293 4 279 329 297 270 275 119 159 186 209 206 279 247 232 199 278 287 269 270 253 250 302 336 330 342 318 311 311 304 292 283 302 305 311 306 299
308 314 320 324 328 328 326 325 322 317 314 314 312 312 302 238 196 44 310 277 239 270 295 278 303 115 176 226 178 200 209 255 83 253 265 215 267 249 289 326 27 15 311 327 307 327 322 319 341 330 321 310 300 297
314 317 324 329 329 328 329 328 327 320 317 314 312 231 244 23 250 319 216 197 215 209 232 265 259 178 197 244 113 280 235 270 270 288 209 219 245 123 115 130 185 275 293 311 316 296 303 311 314 313 310 307 299 301
314 319 325 326 329 332 333 337 329 327 348 268 328 339 28 335 242 230 234 206 186 222 214 237 255 185 62 303 36 283 204 324 245 255 222 280 305 100 69 329 351 334 331 320 314 320 347 328 324 319 314 309 299 289
314 319 326 329 330 332 333 338 325 323 339 328 300 285 251 237 244 245 214 218 216 257 164 222 183 221 117 28 263 77 277 248 254 185 252 252 225 146 220 352 337 354 325 326 319 336 345 334 323 314 305 303 300 293
315 317 322 328 327 326 334 339 318 279 303 279 239 233 219 224 323 233 206 202 211 202 169 184 182 212 148 222 248 127 238 232 296 246 228 267 111 72 41 345 348 331 310 325 329 333 329 323 323 315 309 309 305 302
318 318 318 325 332 324 342 358 5 3 281 246 253 289 228 207 239 219 230 284 311 105 100 91 133 178 247 244 225 236 245 356 236 250 242 230 116 131 327 330 333 310 326 331 324 320 314 321 312 314 314 310 317 317
317 315 316 318 328 313 325 342 327 327 288 277 276 248 228 245 278 288 324 241 251 149 173 139 190 192 230 230 225 237 236 237 231 219 252 127 138 64 7 317 314 325 325 321 309 315 310 308 307 305 306 311 315 325
317 317 262 313 318 320 314 317 287 238 252 242 236 252 268 272 325 287 217 198 205 258 169 62 23 258 209 222 206 223 238 223 352 351 355 335 89 67 323 309 332 320 313 304 317 312 300 294 297 300 305 318 325 329
317 274 285 324 324 315 295 274 239 232 244 226 240 232 258 249 215 232 224 261 143 236 191 243 242 238 218 227 226 255 338 352 350 49 52 277 60 352 348 325 321 322 304 319 311 309 308 312 319 323 321 329 335 336
281 269 302 319 327 312 232 222 255 251 242 254 269 268 272 282 300 306 299 277 198 186 85 241 304 255 246 262 291 10 230 230 238 243 261 322 23 34 13 345 339 303 307 320 313 294 302 326 351 350 335 347 354 353
267 289 292 303 310 303 273 223 251 264 248 259 260 279 284 282 285 285 271 263 229 24 256 174 244 252 260 305 319 297 296 320 316 300 36 69 26 8 341 317 305 328 320 289 303 328 357 352 347 8 13 16 4 4
304 307 303 272 204 254 270 261 228 257 274 311 291 279 277 250 232 240 235 288 98 106 249 246 269 312 300 292 242 287 309 279 284 353 22 8 43 11 291 296 41 309 309 9 11 14 351 354 356 40 29 29 21 19
304 278 332 160 201 232 262 259 247 255 280 278 277 272 255 286 292 13 0 255 121 200 226 243 303 305 8 356 349 18 26 358 30 8 337 286 340 298 46 42 26 334 331 353 360 46 71 346 347 10 31 38 42 42
246 313 253 244 251 260 265 249 251 309 272 275 291 268 273 288 317 266 230 231 257 240 120 153 61 258 125 42 70 64 49 36 0 326 206 26 354 340 346 268 205 298 339 350 3 343 115 16 9 14 48 70 58 59
285 230 224 230 245 232 260 233 242 238 257 275 305 243 217 189 210 250 242 137 177 282 85 97 93 48 94 115 155 151 108 13 192 208 85 156 236 261 31 357 322 339 192 137 339 343 8 319 39 19 4 16 106 97
219 253 235 227 205 258 246 211 218 248 257 249 274 284 306 152 130 219 254 244 188 152 113 134 185 161 176 185 200 208 170 166 45 333 303 209 176 238 260 29 279 53 13 31 50 286 358 4 351 4 22 27 45 16
200 224 204 238 225 244 241 241 231 268 279 320 297 266 197 180 206 179 220 140 200 139 126 168 222 170 190 232 158 34 321 140 196 221 275 289 321 147 226 16 34 87 305 7 281 287 46 26 2 352 347 22 0 347
225 217 206 234 211 208 201 255 218 245 111 267 262 12 264 183 13 11 282 78 120 139 143 189 221 178 166 199 129 214 226 251 152 239 327 162 178 98 55 2 35 242 346 356 344 343 66 340 305 311 13 49 30 9
247 235 203 238 258 247 251 244 248 252 228 229 292 358 8 278 150 173 188 77 121 131 150 184 215 158 152 153 163 149 185 233 139 9 342 340 356 56 116 48 45 2 2 350 0 352 343 332 15 27 26 34 36 11
246 249 236 208 215 231 248 274 282 274 237 63 324 307 357 22 299 308 75 86 129 145 167 184 236 193 175 156 178 202 221 108 218 257 294 305 133 57 113 93 91 100 59 51 9 15 4 357 353 5 23 21 22 42
232 235 249 264 252 233 244 259 256 271 141 158 226 281 201 21 339 329 320 136 160 167 184 174 201 230 174 190 222 235 273 198 142 33 62 278 203 154 103 146 161 174 176 144 104 72 61 28 9 351 341 342 1 359
236 241 250 250 253 250 247 263 277 271 194 226 211 238 122 41 300 272 282 188 177 188 198 197 182 218 227 220 218 213 180 284 306 281 200 75 99 83 98 121 147 185 197 210 209 208 226 233 245 258 298 349 25 347
229 211 222 235 243 254 260 284 290 291 293 287 280 278 285 184 195 248 259 201 229 199 202 215 221 218 234 246 251 136 196 221 232 315 0 337 75 63 63 70 204 173 90 347 318 334 11 321 324 25 64 358 2 345
232 240 247 248 248 250 251 255 258 263 266 258 250 235 238 241 275 38 297 306 222 217 204 233 236 184 226 231 89 84 35 6 77 104 93 24 17 67 235 225 171 150 235 255 269 260 10 339 347 355 347 326 337 337
222 224 237 247 254 260 263 262 262 260 262 262 255 243 225 234 246 166 208 233 236 236 207 193 233 221 175 200 14 23 229 177 171 183 155 224 317 328 322 334 353 252 212 233 284 314 311 278 5 346 339 342 334 333